SCP
0 0 0 0 0 0 0 0 0 0 0 0 0 0 0 0 0 0 0 0 0 0 0 0 0 0 0 0 0 0 0 0 0 0 0 0 0 0
0 0 0 0 0 0 0 0 0 0 0 0 0 0 0 0 0 0 0 0 0 0 0 0 0 0 0 0 0 0 0 0 0 0 0 0 0 0
0 0 0 0 0 0 0 0 0 0 0 0 0 0 0 0 0 0 0 0 0 0 0 0 0 0 0 0 0 0 0 0 0 0 0 0 0 0
0 0 0 0 0 0 0 0 0 0 0 0 0 0 0 0 0 0 0 0 0 0 0 0 0 0 0 0 0 0 0 0 0 0 0 0 0 0
-0 0 0 0 0 -0 0 0 0 0 0 0 0 0 0 0 0 0 0 0 0 0 0 0 0 -0 -0 -0 -0 -0 -0 -0 -0 -0 0 0 0 0
0 0 0 0 0 0 0 0 0 0 0 0 0 0 0 0 0 0 0 0 0 0 0 0 0 -0 -0 -0 -0 -0 0 0 0 0 0 0 0 0
0 0 0 0 0 0 0 0 0 0 0 0 0 0 0 0 0 0 0 0 0 0 0 0 0 0 0 -0 -0 0 0 0 0 0 0 0 0 0
0 0 0 0 0 0 0 0 0 0 0 0 0 0 0 0 0 0 0 0 0 0 0 0 0 0 0 0 0 0 0 -0 -0 -0 -0 -0 -0 -0
0 0 0 0 0 0 0 0 0 0 0 0 0 0 0 0 0 0 0 0 0 0 0 0 0 0 0 0 0 0 0 0 0 -0 -0 -0 -0 -0
0 0 0 0 0 0 0 0 0 0 0 0 0 0 0 0 0 0 0 0 0 0 0 0 0 0 0 0 0 0 0 0 0 0 0 0 0 -0
0 0 0 0 0 0 0 0 0 0 0 0 0 0 0 0 0 0 0 0 0 0 0 0 0 0 0 0 0 0 0 0 0 0 0 0 0 0
0 0 0 0 0 0 0 0 0 0 0 0 0 0 0 0 0 0 0 0 0 0 0 0 0 0 0 0 0 0 0 0 0 0 0 0 0 0
0 0 0 0 0 0 0 0 0 0 0 0 0 0 0 0 0 0 0 0 0 0 0 0 0 0 0 0 0 0 0 0 0 0 0 0 0 0
0 0 0 0 0 0 0 0 0 0 0 0 0 0 0 0 0 0 0 0 0 0 0 0 0 0 0 0 0 0 0 0 0 0 0 0 0 0
0 0 0 0 0 0 0 0 0 0 0 0 0 0 0 0 0 0 0 0 0 0 0 0 0 0 0 0 0 0 0 0 0 0 0 0 0 0
0 0 0 0 0 0 0 0 0 0 0 0 0 0 0 0 0 0 0 0 0 0 0 0 0 0 0 0 0 0 0 0 0 0 0 0 0 0
0 0 0 0 0 0 0 0 0 0 0 0 0 0 0 0 0 0 0 0 0 0 0 0 0 0 0 0 0 0 0 0 0 0 0 0 0 0
0 0 0 0 0 0 0 0 0 0 0 0 0 0 0 0 0 0 0 0 0 0 0 0 0 0 0 0 0 0 0 0 0 0 0 0 0 0
0 0 0 0 0 0 0 0 0 0 0 0 0 0 0 0 0 0 0 0 0 0 0 0 0 0 0 0 0 0 0 0 0 0 0 0 0 0
0 0 0 0 0 0 0 0 0 0 0 0 0 0 0 0 0 0 0 0 0 0 0 0 0 1 1 0 0 0 0 1 1 1 0 0 0 0
0 0 0 0 0 0 0 0 0 0 0 0 0 0 0 0 0 0 0 0 0 0 0 0 1 0 1 1 1 1 1 0 0 1 1 1 0 0
0 0 0 0 0 0 0 0 0 0 0 0 0 0 0 0 0 0 0 0 0 0 0 0 1 1 1 1 1 0 0 1 0 0 0 0 1 0
0 0 0 0 0 0 0 0 0 0 0 0 0 0 0 0 0 0 0 0 0 0 0 1 1 1 1 1 0 0 0 1 1 1 0 0 0 0
Wind_Speed_500mb
70 80 87 76 66 66 66 62 55 43 42 41 39 43 37 28 24 25 24 23 20 17 15 15 16 19 21 19 15 13 13 12 9 6 3 2 2 1
49 51 58 64 67 72 66 65 64 66 55 53 52 44 39 32 31 28 20 22 19 16 15 14 13 13 15 16 17 16 15 13 11 8 7 6 6 5
42 45 50 60 67 60 62 60 60 60 64 55 54 47 47 40 33 30 26 23 19 20 17 18 18 18 18 18 16 16 15 17 16 12 10 9 9 8
44 41 33 31 34 36 40 46 39 34 21 24 31 38 46 40 36 30 31 24 25 24 24 21 19 20 20 20 18 20 18 15 10 6 4 6 9 9
30 26 22 24 21 22 28 26 25 24 31 25 25 34 35 40 41 38 35 29 30 29 27 24 22 20 19 18 16 14 11 9 8 7 6 5 4 6
27 23 28 26 28 25 20 15 19 25 24 29 29 30 39 42 45 39 37 32 34 33 30 28 24 21 19 18 18 17 15 14 14 13 11 10 10 9
30 29 30 28 30 29 28 22 16 22 28 32 34 35 36 42 43 38 36 36 36 35 33 30 26 24 23 26 22 22 21 18 16 18 14 14 15 16
35 35 37 32 29 29 27 21 16 16 21 27 27 31 41 44 39 36 34 36 29 38 34 31 29 26 23 24 26 24 24 23 20 20 17 14 17 22
38 38 40 37 33 30 28 25 23 22 18 18 26 33 41 41 35 40 39 34 27 29 29 24 24 21 21 23 28 29 28 25 24 26 22 19 19 20
38 40 38 36 33 30 30 31 29 28 27 20 25 28 32 34 34 37 36 34 35 33 30 26 24 20 21 25 24 24 23 22 23 25 26 25 22 20
40 39 35 31 28 31 33 32 31 32 31 33 33 31 29 28 29 35 41 38 32 31 35 28 24 22 22 21 19 20 25 27 25 26 27 22 19 17
43 38 38 33 30 33 32 35 35 32 32 33 32 31 32 34 36 34 28 27 30 33 34 34 26 22 23 23 24 23 21 25 27 28 30 25 22 27
45 43 42 37 35 36 36 35 33 27 29 29 27 28 32 37 42 45 46 40 35 33 28 32 26 28 27 17 17 24 24 24 24 27 29 33 31 26
47 43 36 36 36 39 42 39 35 35 29 27 31 31 30 29 28 35 44 51 51 47 35 37 26 24 26 28 29 26 27 32 30 28 26 28 31 34
35 36 35 34 35 39 40 36 36 39 32 32 36 36 33 30 31 36 45 43 43 44 46 44 42 37 35 35 35 33 31 31 37 38 35 36 35 30
39 39 40 37 41 41 43 42 42 41 40 41 40 38 34 33 35 34 33 40 44 41 46 45 45 47 46 41 39 41 36 34 31 37 38 36 37 41
43 42 40 41 41 46 43 38 41 40 46 39 39 38 36 36 36 34 36 33 43 43 43 41 50 51 54 52 44 42 42 40 38 40 44 42 41 42
43 35 34 35 36 38 39 41 44 47 45 44 39 39 37 41 42 40 42 41 44 43 45 41 38 46 55 62 61 54 45 43 40 40 46 43 45 41
39 36 39 40 41 39 38 36 38 41 50 54 51 50 52 58 47 44 43 49 49 47 47 44 46 46 46 54 49 52 59 51 43 41 44 47 47 44
42 42 42 44 48 49 52 56 57 45 45 52 57 63 62 59 56 55 52 50 53 53 52 48 50 57 56 60 54 46 49 52 50 50 46 46 46 52
50 53 53 47 44 46 48 50 50 47 49 51 53 59 62 60 62 66 66 66 61 56 58 58 58 64 55 42 47 51 52 63 60 57 51 49 49 46
49 55 62 62 60 61 61 62 62 62 62 65 66 61 61 60 61 60 58 60 63 66 67 63 57 51 50 52 58 57 56 48 57 56 60 65 54 59
65 59 58 67 68 66 67 68 67 62 56 59 62 64 64 62 72 69 65 62 62 63 61 62 62 57 58 55 59 59 56 52 47 49 59 65 74 81
Wind_Direction_500mb
264 250 231 240 244 234 247 251 254 246 242 231 222 218 223 206 190 185 176 179 189 201 213 215 219 227 227 226 220 201 180 171 155 153 140 102 47 54
255 241 228 246 248 244 247 245 254 257 243 234 223 217 204 194 194 195 200 198 201 204 193 184 176 165 162 163 164 161 157 152 145 131 113 83 52 29
248 244 248 248 244 239 240 249 252 253 231 214 215 209 193 197 201 204 208 204 207 196 184 173 167 162 159 160 160 159 152 136 122 109 84 53 34 23
240 243 244 241 226 224 227 234 240 243 201 198 212 177 193 196 208 210 211 210 208 193 179 171 167 166 161 156 145 142 141 143 139 128 86 41 25 12
211 208 208 204 207 197 188 200 214 211 206 198 171 185 186 199 211 212 209 211 194 187 183 176 169 166 162 162 163 169 180 198 218 237 258 285 311 349
206 210 207 205 190 179 181 185 192 185 172 181 191 201 208 205 208 213 211 204 191 188 191 191 190 192 197 204 207 212 217 234 237 235 241 260 259 275
220 218 206 197 190 188 185 190 192 200 209 209 204 207 211 207 207 211 205 204 200 201 201 206 205 218 222 222 232 236 241 247 252 233 245 258 258 260
215 209 202 193 183 186 193 195 195 207 211 212 208 208 213 204 205 200 194 190 196 202 207 217 218 221 225 229 234 247 249 251 254 238 252 258 270 258
206 199 194 197 200 201 205 206 201 204 201 221 218 207 204 203 204 196 196 196 195 198 199 203 208 218 235 239 246 254 255 253 243 247 253 272 286 260
203 197 198 203 206 207 207 207 205 204 200 198 208 208 205 208 209 210 214 213 213 213 215 215 229 239 251 253 249 245 240 242 243 245 259 269 278 258
202 199 205 208 207 206 206 206 206 202 202 202 205 207 211 214 215 218 221 217 218 222 227 222 242 249 267 246 253 253 245 245 248 253 252 257 274 259
203 202 201 203 210 209 208 205 206 206 206 212 216 223 227 230 229 224 217 211 221 224 228 234 243 251 271 245 245 245 251 246 254 255 256 257 265 262
206 206 207 209 212 212 211 209 209 205 216 223 226 233 237 239 238 235 237 234 229 231 236 239 246 253 233 231 237 241 239 237 242 251 259 260 271 269
208 209 213 216 219 217 217 219 216 219 226 229 223 226 230 235 239 244 241 240 241 241 242 248 239 220 223 237 249 255 255 245 241 240 248 266 273 282
204 210 218 218 218 215 217 219 221 227 229 231 229 233 237 241 243 247 242 241 241 239 239 240 237 234 241 244 252 257 256 258 249 250 246 253 268 271
212 218 220 217 216 219 222 225 228 231 232 237 236 239 243 243 242 240 241 239 239 242 243 240 238 239 244 251 255 255 254 254 259 252 249 245 254 266
215 216 215 220 222 225 228 228 231 235 236 236 234 233 235 238 241 236 237 235 233 237 240 245 244 247 255 257 251 250 252 255 253 251 255 249 252 255
217 215 218 221 225 227 230 233 234 236 235 235 236 236 236 241 244 239 240 233 236 238 240 238 242 250 252 254 250 247 250 252 250 251 255 250 250 249
218 222 223 226 231 233 234 235 236 237 241 236 238 240 244 249 246 241 240 240 240 241 243 245 240 238 245 252 250 255 251 248 251 247 246 254 247 247
223 224 232 238 242 245 250 249 247 245 242 245 242 242 243 245 244 245 243 243 242 243 247 247 241 243 240 248 257 249 258 257 242 247 246 250 254 250
232 238 240 243 243 247 250 254 257 254 250 251 252 245 245 243 244 244 245 244 245 244 248 246 244 252 253 252 248 248 252 261 262 248 245 241 245 249
237 243 247 250 253 256 256 256 257 258 258 257 256 251 249 244 242 243 242 241 243 245 247 246 244 244 246 240 249 252 255 255 264 260 253 242 239 241
245 243 246 256 261 263 265 265 264 259 256 256 252 249 247 243 248 245 241 242 242 242 243 242 241 244 243 247 248 252 253 251 246 251 263 258 255 252
Wind_Speed_850mb
70 80 87 76 66 66 66 62 55 43 42 41 39 43 37 28 24 25 24 23 20 17 15 15 16 19 21 19 15 13 13 12 9 6 3 2 2 1
49 51 58 64 67 72 66 65 64 66 55 53 52 44 39 32 31 28 20 22 19 16 15 14 13 13 15 16 17 16 15 13 11 8 7 6 6 5
42 45 50 60 67 60 62 60 60 60 64 55 54 47 47 40 33 30 26 23 19 20 17 18 18 18 18 18 16 16 15 17 16 12 10 9 9 8
44 41 33 31 34 36 40 46 39 34 21 24 31 38 46 40 36 30 31 24 25 24 24 21 19 20 20 20 18 20 18 15 10 6 4 6 9 9
30 26 22 24 21 22 28 26 25 24 31 25 25 34 35 40 41 38 35 29 30 29 27 24 22 20 19 18 16 14 11 9 8 7 6 5 4 6
27 23 28 26 28 25 20 15 19 25 24 29 29 30 39 42 45 39 37 32 34 33 30 28 24 21 19 18 18 17 15 14 14 13 11 10 10 9
30 29 30 28 30 29 28 22 16 22 28 32 34 35 36 42 43 38 36 36 36 35 33 30 26 24 23 26 22 22 21 18 16 18 14 14 15 16
35 35 37 32 29 29 27 21 16 16 21 27 27 31 41 44 39 36 34 36 29 38 34 31 29 26 23 24 26 24 24 23 20 20 17 14 17 22
38 38 40 37 33 30 28 25 23 22 18 18 26 33 41 41 35 40 39 34 27 29 29 24 24 21 21 23 28 29 28 25 24 26 22 19 19 20
38 40 38 36 33 30 30 31 29 28 27 20 25 28 32 34 34 37 36 34 35 33 30 26 24 20 21 25 24 24 23 22 23 25 26 25 22 20
40 39 35 31 28 31 33 32 31 32 31 33 33 31 29 28 29 35 41 38 32 31 35 28 24 22 22 21 19 20 25 27 25 26 27 22 19 17
43 38 38 33 30 33 32 35 35 32 32 33 32 31 32 34 36 34 28 27 30 33 34 34 26 22 23 23 24 23 21 25 27 28 30 25 22 27
45 43 42 37 35 36 36 35 33 27 29 29 27 28 32 37 42 45 46 40 35 33 28 32 26 28 27 17 17 24 24 24 24 27 29 33 31 26
47 43 36 36 36 39 42 39 35 35 29 27 31 31 30 29 28 35 44 51 51 47 35 37 26 24 26 28 29 26 27 32 30 28 26 28 31 34
35 36 35 34 35 39 40 36 36 39 32 32 36 36 33 30 31 36 45 43 43 44 46 44 42 37 35 35 35 33 31 31 37 38 35 36 35 30
39 39 40 37 41 41 43 42 42 41 40 41 40 38 34 33 35 34 33 40 44 41 46 45 45 47 46 41 39 41 36 34 31 37 38 36 37 41
43 42 40 41 41 46 43 38 41 40 46 39 39 38 36 36 36 34 36 33 43 43 43 41 50 51 54 52 44 42 42 40 38 40 44 42 41 42
43 35 34 35 36 38 39 41 44 47 45 44 39 39 37 41 42 40 42 41 44 43 45 41 38 46 55 62 61 54 45 43 40 40 46 43 45 41
39 36 39 40 41 39 38 36 38 41 50 54 51 50 52 58 47 44 43 49 49 47 47 44 46 46 46 54 49 52 59 51 43 41 44 47 47 44
42 42 42 44 48 49 52 56 57 45 45 52 57 63 62 59 56 55 52 50 53 53 52 48 50 57 56 60 54 46 49 52 50 50 46 46 46 52
50 53 53 47 44 46 48 50 50 47 49 51 53 59 62 60 62 66 66 66 61 56 58 58 58 64 55 42 47 51 52 63 60 57 51 49 49 46
49 55 62 62 60 61 61 62 62 62 62 65 66 61 61 60 61 60 58 60 63 66 67 63 57 51 50 52 58 57 56 48 57 56 60 65 54 59
65 59 58 67 68 66 67 68 67 62 56 59 62 64 64 62 72 69 65 62 62 63 61 62 62 57 58 55 59 59 56 52 47 49 59 65 74 81
Wind_Direction_850mb
264 250 231 240 244 234 247 251 254 246 242 231 222 218 223 206 190 185 176 179 189 201 213 215 219 227 227 226 220 201 180 171 155 153 140 102 47 54
255 241 228 246 248 244 247 245 254 257 243 234 223 217 204 194 194 195 200 198 201 204 193 184 176 165 162 163 164 161 157 152 145 131 113 83 52 29
248 244 248 248 244 239 240 249 252 253 231 214 215 209 193 197 201 204 208 204 207 196 184 173 167 162 159 160 160 159 152 136 122 109 84 53 34 23
240 243 244 241 226 224 227 234 240 243 201 198 212 177 193 196 208 210 211 210 208 193 179 171 167 166 161 156 145 142 141 143 139 128 86 41 25 12
211 208 208 204 207 197 188 200 214 211 206 198 171 185 186 199 211 212 209 211 194 187 183 176 169 166 162 162 163 169 180 198 218 237 258 285 311 349
206 210 207 205 190 179 181 185 192 185 172 181 191 201 208 205 208 213 211 204 191 188 191 191 190 192 197 204 207 212 217 234 237 235 241 260 259 275
220 218 206 197 190 188 185 190 192 200 209 209 204 207 211 207 207 211 205 204 200 201 201 206 205 218 222 222 232 236 241 247 252 233 245 258 258 260
215 209 202 193 183 186 193 195 195 207 211 212 208 208 213 204 205 200 194 190 196 202 207 217 218 221 225 229 234 247 249 251 254 238 252 258 270 258
206 199 194 197 200 201 205 206 201 204 201 221 218 207 204 203 204 196 196 196 195 198 199 203 208 218 235 239 246 254 255 253 243 247 253 272 286 260
203 197 198 203 206 207 207 207 205 204 200 198 208 208 205 208 209 210 214 213 213 213 215 215 229 239 251 253 249 245 240 242 243 245 259 269 278 258
202 199 205 208 207 206 206 206 206 202 202 202 205 207 211 214 215 218 221 217 218 222 227 222 242 249 267 246 253 253 245 245 248 253 252 257 274 259
203 202 201 203 210 209 208 205 206 206 206 212 216 223 227 230 229 224 217 211 221 224 228 234 243 251 271 245 245 245 251 246 254 255 256 257 265 262
206 206 207 209 212 212 211 209 209 205 216 223 226 233 237 239 238 235 237 234 229 231 236 239 246 253 233 231 237 241 239 237 242 251 259 260 271 269
208 209 213 216 219 217 217 219 216 219 226 229 223 226 230 235 239 244 241 240 241 241 242 248 239 220 223 237 249 255 255 245 241 240 248 266 273 282
204 210 218 218 218 215 217 219 221 227 229 231 229 233 237 241 243 247 242 241 241 239 239 240 237 234 241 244 252 257 256 258 249 250 246 253 268 271
212 218 220 217 216 219 222 225 228 231 232 237 236 239 243 243 242 240 241 239 239 242 243 240 238 239 244 251 255 255 254 254 259 252 249 245 254 266
215 216 215 220 222 225 228 228 231 235 236 236 234 233 235 238 241 236 237 235 233 237 240 245 244 247 255 257 251 250 252 255 253 251 255 249 252 255
217 215 218 221 225 227 230 233 234 236 235 235 236 236 236 241 244 239 240 233 236 238 240 238 242 250 252 254 250 247 250 252 250 251 255 250 250 249
218 222 223 226 231 233 234 235 236 237 241 236 238 240 244 249 246 241 240 240 240 241 243 245 240 238 245 252 250 255 251 248 251 247 246 254 247 247
223 224 232 238 242 245 250 249 247 245 242 245 242 242 243 245 244 245 243 243 242 243 247 247 241 243 240 248 257 249 258 257 242 247 246 250 254 250
232 238 240 243 243 247 250 254 257 254 250 251 252 245 245 243 244 244 245 244 245 244 248 246 244 252 253 252 248 248 252 261 262 248 245 241 245 249
237 243 247 250 253 256 256 256 257 258 258 257 256 251 249 244 242 243 242 241 243 245 247 246 244 244 246 240 249 252 255 255 264 260 253 242 239 241
245 243 246 256 261 263 265 265 264 259 256 256 252 249 247 243 248 245 241 242 242 242 243 242 241 244 243 247 248 252 253 251 246 251 263 258 255 252